loading
|

MIDAS 4 DEB, 27478

Orbit data source: Space-Track

MIDAS 4 DEB, 27478 is space debris originally from a launch on Sat, 21 Oct 1961 UTC launched from the Air Force Western Test Range (AFWTR). Debris objects in space refer to the collection of defunct objects orbiting the Earth. Examples of debris include non-operational satellites, rocket bodies, and fragments generated from explosions, collisions, or faulty payload assembly.

Loading next visibility...
Next conjunction unknown
Loading greatness...
MIDAS 4 DEB details
Identifier
27478, 1961-028H
Orbit
Active
Last TLE update3 days ago
Origin
Flag of USUSAF SSD (US)
ManufacturerUnknown
MissionSpacecraft
Bus & MotorUnknown bus, Unknown motor
MassUnknown
Launch date (UTC)
1961-10-21 (63 years ago)
Launch vehicleUnknown
Launch site
Air Force Western Test Range (AFWTR)
Object type
Payload
Rocket body
Debris
Shape & HBRUnknown
Radar Cross SectionMedium (>0.1 m² and <1 m²)

Expand to show TLE details & history

TLE from 3 days ago
0 MIDAS 4 DEB
1 27478U 61028H   24285.91660051  .00000035  00000-0  16959-1 0  9993
2 27478  95.8604  89.3958 0294506 209.5299 312.3439  8.66688132721942
Epoch: 2024-10-11T21:59Z
Definitive object data (Epoch: 2024-10-11T21:59:54.284Z)
Latitude20.57385°
Longitude-79.36122°
Altitude3,441.39 km
Speed6.435 km/s
True Right ascension18h 06m 22s
True Declination20° 29' 31"
Sunlit
Object was in daylight at TLE epoch
Predictive object data (real-time)
Latitude-42.16745°
Longitude104.32121°
Altitude3,746.322 km
Speed6.245 km/s
Apparent Right ascension03h 38m 31s
Apparent Declination-63° 17' 38"
Sunlit
Object is in daylight
Predictive observer data (real-time)
Local Sidereal Time09:27:08
Azimuth212.688° SW
Elevation-33.787°
Doppler factor1
Orbital elements
Apogee3,925.879 km
Perigee3,336.322 km
Semi-major axis10,009.237 km
Eccentricity0.0294506
Inclination95.8604°
RAAN89.3958°
Arg. of periapsis209.5299°
True anomaly309.78704°
Mean anomaly312.3439°
Eccentric anomaly311.07179°
Mean motion2.16741 °/min
BSTAR0.016959
Period166.1 mins
No data available

MIDAS 4 DEB Visibility forecast

Observer location: 39.9160978°, -105.1181434

Span
Click to sort rows by Start time (UTC) header in descending order
Start Az.
Max El. time (UTC)
Max El. Az.
Max El.
End time (UTC)
End Az.
31 mins2024-10-14 21:37:02.324Z19.681° NNE2024-10-14 21:53:02.324Z84.901° E31.675°2024-10-14 22:08:02.324Z147.958° SSE
33 mins2024-10-15 00:21:02.324Z4.506° NNE2024-10-15 00:37:02.324Z294.033° NW41.7°2024-10-15 00:54:02.324Z215.406° SW
17 mins2024-10-15 03:06:02.324Z353.588° N2024-10-15 03:14:02.324Z326.156° NNW16.202°2024-10-15 03:23:02.324Z293.864° NW
27 mins2024-10-15 08:04:02.324Z93.116° ESE2024-10-15 08:17:02.324Z48.608° ENE24.51°2024-10-15 08:31:02.324Z0.427° NNE
38 mins2024-10-15 10:38:02.324Z162.157° S2024-10-15 10:56:02.324Z112.441° ESE44.918°2024-10-15 11:16:02.324Z351.611° N
29 mins2024-10-15 13:29:02.324Z235.717° WSW2024-10-15 13:43:02.324Z285.059° WNW23.489°2024-10-15 13:58:02.324Z336.269° NNW